Wetterdaten: Montag, 27.04.2015
Datum Zeit Temp. A. Feuchte A. Luftdruck Regen Wind Richtung Richtung Sonnenschein ET UV Solar Taupunkt Windchill Windben Empfang
27.04.2015 00:00 12,5 C 77 % 1003,5 hPa 0,0 l/m 0,0 km/h (0 Bft) S 178 0 min 0,000 mm 0,0 UV-I 0 W/m 8,6 C 12,5 C 0,0 km/h (0 Bft) 0,00 %
27.04.2015 00:15 12,5 C 76 % 1003,5 hPa 0,0 l/m 0,7 km/h (0 Bft) O 93 0 min 0,000 mm 0,0 UV-I 0 W/m 8,4 C 12,5 C 4,0 km/h (1 Bft) 0,00 %
27.04.2015 00:30 12,9 C 75 % 1003,4 hPa 0,0 l/m 0,0 km/h (0 Bft) SO 146 0 min 0,000 mm 0,0 UV-I 0 W/m 8,6 C 12,9 C 0,0 km/h (0 Bft) 0,00 %
27.04.2015 00:45 12,2 C 78 % 1003,7 hPa 0,0 l/m 0,0 km/h (0 Bft) S-SO 158 0 min 0,000 mm 0,0 UV-I 0 W/m 8,5 C 12,2 C 0,0 km/h (0 Bft) 0,00 %
27.04.2015 01:00 12,0 C 78 % 1003,7 hPa 0,0 l/m 0,0 km/h (0 Bft) S 180 0 min 0,000 mm 0,0 UV-I 0 W/m 8,3 C 12,0 C 0,0 km/h (0 Bft) 0,00 %
27.04.2015 01:15 11,2 C 82 % 1003,3 hPa 0,0 l/m 0,0 km/h (0 Bft) S 174 0 min 0,000 mm 0,0 UV-I 0 W/m 8,2 C 11,2 C 0,0 km/h (0 Bft) 0,00 %
27.04.2015 01:30 11,0 C 83 % 1003,3 hPa 0,0 l/m 0,0 km/h (0 Bft) S 173 0 min 0,000 mm 0,0 UV-I 0 W/m 8,2 C 11,0 C 0,0 km/h (0 Bft) 0,00 %
27.04.2015 01:45 11,0 C 82 % 1003,1 hPa 0,0 l/m 0,0 km/h (0 Bft) S 181 0 min 0,000 mm 0,0 UV-I 0 W/m 8,0 C 11,0 C 0,0 km/h (0 Bft) 0,00 %
27.04.2015 02:00 10,6 C 85 % 1003,1 hPa 0,0 l/m 0,0 km/h (0 Bft) S 186 0 min 0,000 mm 0,0 UV-I 0 W/m 8,2 C 10,6 C 0,0 km/h (0 Bft) 0,00 %
27.04.2015 02:15 9,9 C 88 % 1002,9 hPa 0,0 l/m 0,0 km/h (0 Bft) S 177 0 min 0,000 mm 0,0 UV-I 0 W/m 8,0 C 9,9 C 0,0 km/h (0 Bft) 0,00 %
27.04.2015 02:30 9,6 C 90 % 1002,6 hPa 0,0 l/m 0,0 km/h (0 Bft) S 178 0 min 0,000 mm 0,0 UV-I 0 W/m 8,0 C 9,6 C 0,0 km/h (0 Bft) 0,00 %
27.04.2015 02:45 9,5 C 91 % 1002,8 hPa 0,0 l/m 0,0 km/h (0 Bft) S 173 0 min 0,000 mm 0,0 UV-I 0 W/m 8,1 C 9,5 C 0,0 km/h (0 Bft) 0,00 %
27.04.2015 03:00 9,0 C 93 % 1002,7 hPa 0,0 l/m 0,0 km/h (0 Bft) S 178 0 min 0,000 mm 0,0 UV-I 0 W/m 7,9 C 9,0 C 0,0 km/h (0 Bft) 0,00 %
27.04.2015 03:15 8,9 C 93 % 1002,4 hPa 0,0 l/m 0,0 km/h (0 Bft) S 190 0 min 0,000 mm 0,0 UV-I 0 W/m 7,8 C 8,9 C 0,0 km/h (0 Bft) 0,00 %
27.04.2015 03:30 8,5 C 93 % 1002,6 hPa 0,0 l/m 0,0 km/h (0 Bft) S 180 0 min 0,000 mm 0,0 UV-I 0 W/m 7,4 C 8,5 C 0,0 km/h (0 Bft) 0,00 %
27.04.2015 03:45 8,4 C 95 % 1002,6 hPa 0,0 l/m 0,0 km/h (0 Bft) S 181 0 min 0,000 mm 0,0 UV-I 0 W/m 7,6 C 8,4 C 0,0 km/h (0 Bft) 0,00 %
27.04.2015 04:00 8,5 C 96 % 1002,4 hPa 0,0 l/m 0,0 km/h (0 Bft) S 188 0 min 0,000 mm 0,0 UV-I 0 W/m 7,9 C 8,5 C 0,0 km/h (0 Bft) 0,00 %
27.04.2015 04:15 8,4 C 97 % 1002,0 hPa 0,0 l/m 0,0 km/h (0 Bft) S 174 0 min 0,000 mm 0,0 UV-I 0 W/m 8,0 C 8,4 C 0,0 km/h (0 Bft) 0,00 %
27.04.2015 04:30 8,2 C 96 % 1001,8 hPa 0,0 l/m 0,0 km/h (0 Bft) S 188 0 min 0,000 mm 0,0 UV-I 0 W/m 7,6 C 8,2 C 0,0 km/h (0 Bft) 0,00 %
27.04.2015 04:45 7,7 C 97 % 1002,0 hPa 0,0 l/m 0,0 km/h (0 Bft) S 185 0 min 0,000 mm 0,0 UV-I 0 W/m 7,3 C 7,7 C 0,0 km/h (0 Bft) 0,00 %
27.04.2015 05:00 7,6 C 98 % 1001,7 hPa 0,0 l/m 0,0 km/h (0 Bft) S 176 0 min 0,000 mm 0,0 UV-I 0 W/m 7,3 C 7,6 C 0,0 km/h (0 Bft) 0,00 %
27.04.2015 05:15 7,6 C 98 % 1001,7 hPa 0,0 l/m 0,0 km/h (0 Bft) S 184 0 min 0,000 mm 0,0 UV-I 0 W/m 7,3 C 7,6 C 0,0 km/h (0 Bft) 0,00 %
27.04.2015 05:30 7,6 C 99 % 1001,5 hPa 0,0 l/m 0,0 km/h (0 Bft) S 183 0 min 0,000 mm 0,0 UV-I 0 W/m 7,5 C 7,6 C 0,0 km/h (0 Bft) 0,00 %
27.04.2015 05:45 7,6 C 99 % 1001,6 hPa 0,0 l/m 0,0 km/h (0 Bft) S 189 0 min 0,000 mm 0,0 UV-I 0 W/m 7,5 C 7,6 C 0,0 km/h (0 Bft) 0,00 %
27.04.2015 06:00 7,8 C 99 % 1001,5 hPa 0,0 l/m 0,0 km/h (0 Bft) S-SW 201 0 min 0,000 mm 0,0 UV-I 2 W/m 7,7 C 7,8 C 0,0 km/h (0 Bft) 0,00 %
27.04.2015 06:15 7,6 C 99 % 1001,7 hPa 0,0 l/m 0,0 km/h (0 Bft) S 176 15 min 0,000 mm 0,0 UV-I 26 W/m 7,5 C 7,6 C 0,0 km/h (0 Bft) 0,00 %
27.04.2015 06:30 8,2 C 99 % 1001,5 hPa 0,0 l/m 0,0 km/h (0 Bft) S 173 15 min 0,000 mm 0,0 UV-I 53 W/m 8,1 C 8,2 C 0,0 km/h (0 Bft) 0,00 %
27.04.2015 06:45 9,2 C 97 % 1001,3 hPa 0,0 l/m 0,0 km/h (0 Bft) S-SW 193 15 min 0,000 mm 1,0 UV-I 109 W/m 8,7 C 9,2 C 0,0 km/h (0 Bft) 0,00 %
27.04.2015 07:00 9,7 C 92 % 1001,5 hPa 0,0 l/m 0,0 km/h (0 Bft) W-SW 250 15 min 0,000 mm 1,0 UV-I 162 W/m 8,5 C 9,7 C 0,0 km/h (0 Bft) 0,00 %
27.04.2015 07:15 9,8 C 91 % 1001,2 hPa 0,0 l/m 0,0 km/h (0 Bft) S 175 0 min 0,000 mm 1,0 UV-I 88 W/m 8,4 C 9,8 C 0,0 km/h (0 Bft) 0,00 %
27.04.2015 07:30 11,2 C 84 % 1001,0 hPa 0,0 l/m 0,0 km/h (0 Bft) SO 145 15 min 0,000 mm 1,0 UV-I 188 W/m 8,6 C 11,2 C 0,0 km/h (0 Bft) 0,00 %
27.04.2015 07:45 12,2 C 79 % 1000,6 hPa 0,0 l/m 0,0 km/h (0 Bft) W-SW 252 0 min 0,000 mm 1,0 UV-I 146 W/m 8,7 C 12,2 C 0,0 km/h (0 Bft) 0,00 %
27.04.2015 08:00 12,1 C 80 % 1000,4 hPa 0,0 l/m 0,7 km/h (0 Bft) SO 139 15 min 0,000 mm 2,0 UV-I 203 W/m 8,8 C 12,1 C 4,0 km/h (1 Bft) 0,00 %
27.04.2015 08:15 12,6 C 78 % 1000,5 hPa 0,0 l/m 0,0 km/h (0 Bft) O 84 15 min 0,000 mm 2,0 UV-I 253 W/m 8,9 C 12,6 C 0,0 km/h (0 Bft) 0,00 %
27.04.2015 08:30 14,2 C 70 % 1000,0 hPa 0,0 l/m 1,4 km/h (1 Bft) O-NO 61 15 min 0,000 mm 2,0 UV-I 377 W/m 8,8 C 14,2 C 4,0 km/h (1 Bft) 0,00 %
27.04.2015 08:45 14,7 C 68 % 1000,0 hPa 0,0 l/m 0,0 km/h (0 Bft) SO 144 15 min 0,000 mm 2,0 UV-I 442 W/m 8,9 C 14,7 C 0,0 km/h (0 Bft) 0,00 %
27.04.2015 09:00 15,5 C 66 % 999,6 hPa 0,0 l/m 6,5 km/h (2 Bft) O-SO 108 15 min 0,000 mm 2,0 UV-I 374 W/m 9,2 C 15,5 C 7,9 km/h (2 Bft) 0,00 %
27.04.2015 09:15 15,7 C 64 % 999,6 hPa 0,0 l/m 4,0 km/h (1 Bft) O-SO 102 15 min 0,000 mm 3,0 UV-I 374 W/m 8,9 C 15,7 C 7,9 km/h (2 Bft) 0,00 %
27.04.2015 09:30 16,7 C 62 % 999,4 hPa 0,0 l/m 2,2 km/h (1 Bft) SO 124 15 min 0,000 mm 3,0 UV-I 311 W/m 9,4 C 16,7 C 4,0 km/h (1 Bft) 0,00 %
27.04.2015 09:45 17,8 C 58 % 999,3 hPa 0,0 l/m 0,0 km/h (0 Bft) NW 307 15 min 0,000 mm 3,0 UV-I 441 W/m 9,4 C 17,8 C 0,0 km/h (0 Bft) 0,00 %
27.04.2015 10:00 18,6 C 54 % 999,2 hPa 0,0 l/m 0,0 km/h (0 Bft) O 94 15 min 0,000 mm 3,0 UV-I 446 W/m 9,1 C 18,6 C 0,0 km/h (0 Bft) 0,00 %
27.04.2015 10:15 18,8 C 54 % 999,2 hPa 0,0 l/m 5,8 km/h (2 Bft) O 96 15 min 0,000 mm 4,0 UV-I 433 W/m 9,3 C 18,8 C 7,9 km/h (2 Bft) 0,00 %
27.04.2015 10:30 19,8 C 52 % 998,9 hPa 0,0 l/m 3,2 km/h (1 Bft) SO 136 15 min 0,000 mm 4,0 UV-I 513 W/m 9,7 C 19,8 C 4,0 km/h (1 Bft) 0,00 %
27.04.2015 10:45 20,5 C 44 % 999,1 hPa 0,0 l/m 2,9 km/h (1 Bft) SO 128 15 min 0,000 mm 4,0 UV-I 569 W/m 7,8 C 20,5 C 4,0 km/h (1 Bft) 0,00 %
27.04.2015 11:00 20,7 C 43 % 998,8 hPa 0,0 l/m 4,3 km/h (1 Bft) SO 124 15 min 0,000 mm 4,0 UV-I 638 W/m 7,7 C 20,7 C 7,9 km/h (2 Bft) 0,00 %
27.04.2015 11:15 20,3 C 51 % 998,9 hPa 0,0 l/m 0,4 km/h (0 Bft) S 189 15 min 0,000 mm 4,0 UV-I 476 W/m 9,8 C 20,3 C 4,0 km/h (1 Bft) 0,00 %
27.04.2015 11:30 20,9 C 48 % 998,6 hPa 0,0 l/m 2,9 km/h (1 Bft) O-SO 109 15 min 0,000 mm 5,0 UV-I 477 W/m 9,5 C 20,9 C 4,0 km/h (1 Bft) 0,00 %
27.04.2015 11:45 20,9 C 45 % 998,7 hPa 0,0 l/m 3,2 km/h (1 Bft) O-SO 106 15 min 0,000 mm 5,0 UV-I 934 W/m 8,5 C 20,9 C 4,0 km/h (1 Bft) 0,00 %
27.04.2015 12:00 20,6 C 47 % 998,6 hPa 0,0 l/m 0,7 km/h (0 Bft) SO 125 15 min 0,000 mm 5,0 UV-I 648 W/m 8,9 C 20,6 C 4,0 km/h (1 Bft) 0,00 %
27.04.2015 12:15 21,2 C 45 % 998,3 hPa 0,0 l/m 0,4 km/h (0 Bft) O-SO 119 15 min 0,000 mm 5,0 UV-I 608 W/m 8,8 C 21,2 C 4,0 km/h (1 Bft) 0,00 %
27.04.2015 12:30 21,6 C 40 % 998,3 hPa 0,0 l/m 0,4 km/h (0 Bft) NO 50 15 min 0,000 mm 5,0 UV-I 592 W/m 7,4 C 21,6 C 4,0 km/h (1 Bft) 0,00 %
27.04.2015 12:45 22,2 C 41 % 997,7 hPa 0,0 l/m 0,0 km/h (0 Bft) S-SO 154 15 min 0,000 mm 6,0 UV-I 763 W/m 8,3 C 22,2 C 0,0 km/h (0 Bft) 0,00 %
27.04.2015 13:00 22,7 C 40 % 997,5 hPa 0,0 l/m 6,8 km/h (2 Bft) O-SO 105 15 min 0,000 mm 6,0 UV-I 846 W/m 8,4 C 22,6 C 7,9 km/h (2 Bft) 0,00 %
27.04.2015 13:15 23,1 C 38 % 997,3 hPa 0,0 l/m 5,4 km/h (1 Bft) O 89 15 min 0,000 mm 5,0 UV-I 825 W/m 8,0 C 23,1 C 7,9 km/h (2 Bft) 0,00 %
27.04.2015 13:30 23,6 C 36 % 997,2 hPa 0,0 l/m 0,7 km/h (0 Bft) S 187 15 min 0,000 mm 6,0 UV-I 833 W/m 7,6 C 23,6 C 4,0 km/h (1 Bft) 0,00 %
27.04.2015 13:45 23,6 C 36 % 997,1 hPa 0,0 l/m 8,3 km/h (2 Bft) O-SO 105 15 min 0,000 mm 5,0 UV-I 833 W/m 7,6 C 23,0 C 11,9 km/h (2 Bft) 0,00 %
27.04.2015 14:00 23,9 C 32 % 996,7 hPa 0,0 l/m 7,2 km/h (2 Bft) O-SO 111 15 min 0,000 mm 5,0 UV-I 829 W/m 6,2 C 23,7 C 7,9 km/h (2 Bft) 0,00 %
27.04.2015 14:15 24,3 C 31 % 996,6 hPa 0,0 l/m 4,0 km/h (1 Bft) O-SO 103 15 min 0,000 mm 5,0 UV-I 848 W/m 6,1 C 24,3 C 4,0 km/h (1 Bft) 0,00 %
27.04.2015 14:30 24,5 C 27 % 996,5 hPa 0,0 l/m 0,0 km/h (0 Bft) S 191 15 min 0,000 mm 4,0 UV-I 869 W/m 4,3 C 24,5 C 0,0 km/h (0 Bft) 0,00 %
27.04.2015 14:45 25,1 C 26 % 996,3 hPa 0,0 l/m 1,8 km/h (1 Bft) O-SO 102 15 min 0,000 mm 5,0 UV-I 874 W/m 4,2 C 25,1 C 4,0 km/h (1 Bft) 0,00 %
27.04.2015 15:00 24,6 C 28 % 995,9 hPa 0,0 l/m 0,0 km/h (0 Bft) O-SO 106 15 min 0,000 mm 2,0 UV-I 873 W/m 4,9 C 24,6 C 0,0 km/h (0 Bft) 0,00 %
27.04.2015 15:15 24,6 C 28 % 995,6 hPa 0,0 l/m 14,8 km/h (3 Bft) O 99 15 min 0,000 mm 2,0 UV-I 869 W/m 4,9 C 22,9 C 19,8 km/h (3 Bft) 0,00 %
27.04.2015 15:30 24,7 C 27 % 995,4 hPa 0,0 l/m 4,3 km/h (1 Bft) N-NO 29 15 min 0,000 mm 2,0 UV-I 858 W/m 4,4 C 24,7 C 7,9 km/h (2 Bft) 0,00 %
27.04.2015 15:45 24,6 C 31 % 995,1 hPa 0,0 l/m 4,0 km/h (1 Bft) SO 134 15 min 0,000 mm 2,0 UV-I 865 W/m 6,3 C 24,6 C 7,9 km/h (2 Bft) 0,00 %
27.04.2015 16:00 24,8 C 31 % 994,9 hPa 0,0 l/m 4,7 km/h (1 Bft) O 79 15 min 0,000 mm 2,0 UV-I 856 W/m 6,5 C 24,8 C 11,9 km/h (2 Bft) 0,00 %
27.04.2015 16:15 24,6 C 32 % 994,7 hPa 0,0 l/m 6,8 km/h (2 Bft) O-SO 102 15 min 0,000 mm 2,0 UV-I 821 W/m 6,8 C 24,5 C 11,9 km/h (2 Bft) 0,00 %
27.04.2015 16:30 24,4 C 33 % 994,6 hPa 0,0 l/m 7,2 km/h (2 Bft) O-SO 107 15 min 0,000 mm 2,0 UV-I 790 W/m 7,1 C 24,2 C 7,9 km/h (2 Bft) 0,00 %
27.04.2015 16:45 24,3 C 34 % 994,6 hPa 0,0 l/m 8,3 km/h (2 Bft) O 91 15 min 0,000 mm 1,0 UV-I 767 W/m 7,4 C 23,8 C 11,9 km/h (2 Bft) 0,00 %
27.04.2015 17:00 24,1 C 35 % 994,5 hPa 0,0 l/m 5,8 km/h (2 Bft) O 100 15 min 0,000 mm 1,0 UV-I 733 W/m 7,7 C 24,1 C 7,9 km/h (2 Bft) 0,00 %
27.04.2015 17:15 24,1 C 35 % 994,4 hPa 0,0 l/m 11,5 km/h (2 Bft) O-SO 110 15 min 0,000 mm 1,0 UV-I 705 W/m 7,7 C 22,9 C 11,9 km/h (2 Bft) 0,00 %
27.04.2015 17:30 24,5 C 34 % 993,9 hPa 0,0 l/m 4,0 km/h (1 Bft) O-SO 106 15 min 0,000 mm 1,0 UV-I 679 W/m 7,6 C 24,5 C 4,0 km/h (1 Bft) 0,00 %
27.04.2015 17:45 24,1 C 37 % 993,8 hPa 0,0 l/m 2,2 km/h (1 Bft) SO 131 15 min 0,000 mm 1,0 UV-I 694 W/m 8,5 C 24,1 C 4,0 km/h (1 Bft) 0,00 %
27.04.2015 18:00 24,0 C 35 % 993,7 hPa 0,0 l/m 3,2 km/h (1 Bft) O-SO 103 15 min 0,000 mm 1,0 UV-I 651 W/m 7,6 C 24,0 C 7,9 km/h (2 Bft) 0,00 %
27.04.2015 18:15 23,0 C 37 % 993,7 hPa 0,0 l/m 0,0 km/h (0 Bft) SO 139 0 min 0,000 mm 1,0 UV-I 105 W/m 7,5 C 23,0 C 0,0 km/h (0 Bft) 0,00 %
27.04.2015 18:30 22,8 C 31 % 993,4 hPa 0,0 l/m 0,0 km/h (0 Bft) S-SW 200 0 min 0,000 mm 1,0 UV-I 100 W/m 4,8 C 22,8 C 0,0 km/h (0 Bft) 0,00 %
27.04.2015 18:45 24,0 C 27 % 993,3 hPa 0,0 l/m 0,0 km/h (0 Bft) S-SW 197 15 min 0,000 mm 1,0 UV-I 561 W/m 3,8 C 24,0 C 0,0 km/h (0 Bft) 0,00 %
27.04.2015 19:00 23,4 C 30 % 993,5 hPa 0,0 l/m 0,7 km/h (0 Bft) SW 232 15 min 0,000 mm 0,0 UV-I 476 W/m 4,8 C 23,4 C 4,0 km/h (1 Bft) 0,00 %
27.04.2015 19:15 21,8 C 30 % 993,8 hPa 0,0 l/m 0,0 km/h (0 Bft) S 181 15 min 0,000 mm 0,0 UV-I 251 W/m 3,5 C 21,8 C 0,0 km/h (0 Bft) 0,00 %
27.04.2015 19:30 20,8 C 32 % 993,9 hPa 0,0 l/m 0,0 km/h (0 Bft) S 185 15 min 0,000 mm 0,0 UV-I 101 W/m 3,5 C 20,8 C 0,0 km/h (0 Bft) 0,00 %
27.04.2015 19:45 20,1 C 34 % 994,2 hPa 0,0 l/m 1,4 km/h (1 Bft) W-SW 254 0 min 0,000 mm 0,0 UV-I 24 W/m 3,7 C 20,1 C 4,0 km/h (1 Bft) 0,00 %
27.04.2015 20:00 19,6 C 36 % 994,5 hPa 0,0 l/m 0,0 km/h (0 Bft) W 261 0 min 0,000 mm 0,0 UV-I 3 W/m 4,1 C 19,6 C 0,0 km/h (0 Bft) 0,00 %
27.04.2015 20:15 19,1 C 38 % 994,6 hPa 0,0 l/m 0,0 km/h (0 Bft) W-SW 239 0 min 0,000 mm 0,0 UV-I 0 W/m 4,4 C 19,1 C 0,0 km/h (0 Bft) 0,00 %
27.04.2015 20:30 18,7 C 38 % 994,7 hPa 0,0 l/m 0,4 km/h (0 Bft) W 281 0 min 0,000 mm 0,0 UV-I 0 W/m 4,1 C 18,7 C 4,0 km/h (1 Bft) 0,00 %
27.04.2015 20:45 18,3 C 40 % 994,9 hPa 0,0 l/m 0,0 km/h (0 Bft) SW 223 0 min 0,000 mm 0,0 UV-I 0 W/m 4,5 C 18,3 C 0,0 km/h (0 Bft) 0,00 %
27.04.2015 21:00 18,0 C 42 % 995,1 hPa 0,0 l/m 0,0 km/h (0 Bft) SW 216 0 min 0,000 mm 0,0 UV-I 0 W/m 4,9 C 18,0 C 0,0 km/h (0 Bft) 0,00 %
27.04.2015 21:15 17,7 C 42 % 995,2 hPa 0,0 l/m 0,0 km/h (0 Bft) S 189 0 min 0,000 mm 0,0 UV-I 0 W/m 4,6 C 17,7 C 0,0 km/h (0 Bft) 0,00 %
27.04.2015 21:30 17,2 C 42 % 995,5 hPa 0,0 l/m 0,0 km/h (0 Bft) S-SW 193 0 min 0,000 mm 0,0 UV-I 0 W/m 4,2 C 17,2 C 0,0 km/h (0 Bft) 0,00 %
27.04.2015 21:45 16,7 C 44 % 995,2 hPa 0,0 l/m 0,0 km/h (0 Bft) S-SW 210 0 min 0,000 mm 0,0 UV-I 0 W/m 4,4 C 16,7 C 0,0 km/h (0 Bft) 0,00 %
27.04.2015 22:00 16,2 C 48 % 995,4 hPa 0,0 l/m 0,0 km/h (0 Bft) SW 219 0 min 0,000 mm 0,0 UV-I 0 W/m 5,2 C 16,2 C 0,0 km/h (0 Bft) 0,00 %
27.04.2015 22:15 15,7 C 51 % 995,3 hPa 0,0 l/m 0,0 km/h (0 Bft) S-SW 201 0 min 0,000 mm 0,0 UV-I 0 W/m 5,6 C 15,7 C 0,0 km/h (0 Bft) 0,00 %
27.04.2015 22:30 15,0 C 53 % 995,5 hPa 0,0 l/m 0,0 km/h (0 Bft) S-SW 201 0 min 0,000 mm 0,0 UV-I 0 W/m 5,5 C 15,0 C 0,0 km/h (0 Bft) 0,00 %
27.04.2015 22:45 14,4 C 58 % 995,7 hPa 0,0 l/m 0,0 km/h (0 Bft) O-SO 120 0 min 0,000 mm 0,0 UV-I 0 W/m 6,2 C 14,4 C 0,0 km/h (0 Bft) 0,00 %
27.04.2015 23:00 14,2 C 52 % 995,7 hPa 0,0 l/m 0,0 km/h (0 Bft) O 99 0 min 0,000 mm 0,0 UV-I 0 W/m 4,5 C 14,2 C 0,0 km/h (0 Bft) 0,00 %
27.04.2015 23:15 14,7 C 55 % 995,5 hPa 0,0 l/m 0,0 km/h (0 Bft) S 188 0 min 0,000 mm 0,0 UV-I 0 W/m 5,8 C 14,7 C 0,0 km/h (0 Bft) 0,00 %
27.04.2015 23:30 13,7 C 59 % 995,9 hPa 0,0 l/m 0,0 km/h (0 Bft) S-SW 192 0 min 0,000 mm 0,0 UV-I 0 W/m 5,8 C 13,7 C 0,0 km/h (0 Bft) 0,00 %
27.04.2015 23:45 13,3 C 59 % 995,9 hPa 0,0 l/m 0,0 km/h (0 Bft) S 180 0 min 0,000 mm 0,0 UV-I 0 W/m 5,5 C 13,3 C 0,0 km/h (0 Bft) 0,00 %
_ Min-Zeit 05:00 14:45 18:45 - 00:00 - - - - - - 19:15 05:00 00:00 00:00
Minimum _ 7,6 C 26 % 993,3 hPa - 0,0 km/h (0 Bft) - - - - - - 3,5 C 7,6 C 0,0 km/h (0 Bft) 0,00 %
_ Max-Zeit 14:45 05:30 00:45 00:00 15:15 - - 06:15 00:00 12:45 11:45 11:15 14:45 15:15 00:00
Maximum _ 25,1 C 99 % 1003,7 hPa 0,0 l/m 14,8 km/h
O (3 Bft)
- - 15 min 0,000 mm 6,0 UV-I 934 W/m 9,8 C 25,1 C 19,8 km/h
O (3 Bft)
0,00 %
Durchschnitt _ 16,7 C 59 % 998,3 hPa #0,0 l/m 1,6 km/h (1 Bft) O-SO - #12:30 h #0,000 mm 2,9 UV-I 512 W/m 7,1 C 16,7 C 2,7 km/h (1 Bft) 0,00 %